Time,TemperatureF,DewpointF,PressureIn,WindDirection,WindDirectionDegrees,WindSpeedMPH,WindSpeedGustMPH,Humidity,HourlyPrecipIn,Conditions,Clouds,dailyrainin,SolarRadiationWatts/m^2,SoftwareType,DateUTC
2013-07-16 12:43:00,85.0,73.0,-100.00,East,98,5.0,10.0,68,-99.99,,,0.46,783.000000,,2013-07-16 17:43:00,
2013-07-16 12:53:00,85.0,73.0,-100.00,East,98,5.0,10.0,68,-99.99,,,0.46,783.000000,,2013-07-16 17:53:00,
2013-07-16 13:01:00,85.0,73.0,-100.00,East,98,5.0,10.0,68,-99.99,,,0.46,783.000000,,2013-07-16 18:01:00,
2013-07-16 13:22:00,86.0,75.0,-100.00,ESE,121,5.0,9.0,69,0.00,,,0.46,658.000000,,2013-07-16 18:22:00,
2013-07-16 13:33:00,86.0,75.0,-100.00,ESE,121,5.0,9.0,69,0.00,,,0.46,658.000000,,2013-07-16 18:33:00,
2013-07-16 13:43:00,86.0,75.0,-100.00,ESE,121,5.0,9.0,69,0.00,,,0.46,658.000000,,2013-07-16 18:43:00,
2013-07-16 13:53:00,86.0,75.0,-100.00,ESE,121,5.0,9.0,69,0.00,,,0.46,658.000000,,2013-07-16 18:53:00,
2013-07-16 14:01:00,86.0,75.0,-100.00,ESE,121,5.0,9.0,69,0.00,,,0.46,658.000000,,2013-07-16 19:01:00,
2013-07-16 14:02:00,87.0,72.0,-100.00,ESE,117,4.0,10.0,61,0.00,,,0.46,811.000000,,2013-07-16 19:02:00,
2013-07-16 14:22:00,87.0,72.0,-100.00,ESE,117,4.0,10.0,61,0.00,,,0.46,811.000000,,2013-07-16 19:22:00,
2013-07-16 14:32:00,87.0,72.0,-100.00,ESE,117,4.0,10.0,61,0.00,,,0.46,811.000000,,2013-07-16 19:32:00,
2013-07-16 14:43:00,87.0,72.0,-100.00,ESE,117,4.0,10.0,61,0.00,,,0.46,811.000000,,2013-07-16 19:43:00,
2013-07-16 14:52:00,87.0,72.0,-100.00,ESE,117,4.0,10.0,61,0.00,,,0.46,811.000000,,2013-07-16 19:52:00,
2013-07-16 15:22:00,89.0,71.0,-100.00,ESE,118,6.0,11.0,56,0.00,,,0.46,834.000000,,2013-07-16 20:22:00,
2013-07-16 15:32:00,89.0,71.0,-100.00,ESE,118,6.0,11.0,56,0.00,,,0.46,834.000000,,2013-07-16 20:32:00,
2013-07-16 15:43:00,89.0,71.0,-100.00,ESE,118,6.0,11.0,56,0.00,,,0.46,834.000000,,2013-07-16 20:43:00,
2013-07-16 15:52:00,89.0,71.0,-100.00,ESE,118,6.0,11.0,56,0.00,,,0.46,834.000000,,2013-07-16 20:52:00,
2013-07-16 16:01:00,89.0,71.0,-100.00,ESE,118,6.0,11.0,56,0.00,,,0.46,834.000000,,2013-07-16 21:01:00,
2013-07-16 16:22:00,85.0,72.0,-100.00,ESE,117,5.0,11.0,66,0.00,,,0.46,682.000000,,2013-07-16 21:22:00,
2013-07-16 16:32:00,85.0,72.0,-100.00,ESE,117,5.0,11.0,66,0.00,,,0.46,682.000000,,2013-07-16 21:32:00,
2013-07-16 16:43:00,85.0,72.0,-100.00,ESE,117,5.0,11.0,66,0.00,,,0.46,682.000000,,2013-07-16 21:43:00,
2013-07-16 16:52:00,85.0,72.0,-100.00,ESE,117,5.0,11.0,66,0.00,,,0.46,682.000000,,2013-07-16 21:52:00,
2013-07-16 17:01:00,85.0,72.0,-100.00,ESE,117,5.0,11.0,66,0.00,,,0.46,682.000000,,2013-07-16 22:01:00,
2013-07-16 17:33:00,91.0,70.0,-100.00,ESE,109,5.0,10.0,50,0.00,,,0.46,779.000000,,2013-07-16 22:33:00,
2013-07-16 17:43:00,91.0,70.0,-100.00,ESE,109,5.0,10.0,50,0.00,,,0.46,779.000000,,2013-07-16 22:43:00,
2013-07-16 17:52:00,91.0,70.0,-100.00,ESE,109,5.0,10.0,50,0.00,,,0.46,779.000000,,2013-07-16 22:52:00,
2013-07-16 18:01:00,91.0,70.0,-100.00,ESE,109,5.0,10.0,50,0.00,,,0.46,779.000000,,2013-07-16 23:01:00,
2013-07-16 18:22:00,91.0,70.0,-100.00,ESE,110,4.0,12.0,50,0.00,,,0.11,558.000000,,2013-07-16 23:22:00,
2013-07-16 18:32:00,91.0,70.0,-100.00,ESE,110,4.0,12.0,50,0.00,,,0.11,558.000000,,2013-07-16 23:32:00,
2013-07-16 18:43:00,91.0,70.0,-100.00,ESE,110,4.0,12.0,50,0.00,,,0.11,558.000000,,2013-07-16 23:43:00,
2013-07-16 18:52:00,91.0,70.0,-100.00,ESE,110,4.0,12.0,50,0.00,,,0.11,558.000000,,2013-07-16 23:52:00,
2013-07-16 19:01:00,91.0,70.0,-100.00,ESE,110,4.0,12.0,50,0.00,,,0.11,558.000000,,2013-07-17 00:01:00,
2013-07-16 19:22:00,89.0,72.0,-100.00,ESE,114,3.0,11.0,57,0.00,,,0.04,325.000000,,2013-07-17 00:22:00,
2013-07-16 19:33:00,89.0,72.0,-100.00,ESE,114,3.0,11.0,57,0.00,,,0.04,325.000000,,2013-07-17 00:33:00,
2013-07-16 19:42:00,89.0,72.0,-100.00,ESE,114,3.0,11.0,57,0.00,,,0.04,325.000000,,2013-07-17 00:42:00,
2013-07-16 19:52:00,89.0,72.0,-100.00,ESE,114,3.0,11.0,57,0.00,,,0.04,325.000000,,2013-07-17 00:52:00,
2013-07-16 20:01:00,89.0,72.0,-100.00,ESE,114,3.0,11.0,57,0.00,,,0.04,325.000000,,2013-07-17 01:01:00,
2013-07-16 20:22:00,85.0,71.0,-100.00,ESE,110,3.0,8.0,63,0.00,,,0.04,103.000000,,2013-07-17 01:22:00,
2013-07-16 20:32:00,85.0,71.0,-100.00,ESE,110,3.0,8.0,63,0.00,,,0.04,103.000000,,2013-07-17 01:32:00,
2013-07-16 20:43:00,85.0,71.0,-100.00,ESE,110,3.0,8.0,63,0.00,,,0.04,103.000000,,2013-07-17 01:43:00,
2013-07-16 20:53:00,85.0,71.0,-100.00,ESE,110,3.0,8.0,63,0.00,,,0.04,103.000000,,2013-07-17 01:53:00,
2013-07-16 21:01:00,85.0,71.0,-100.00,ESE,110,3.0,8.0,63,0.00,,,0.04,103.000000,,2013-07-17 02:01:00,
2013-07-16 21:32:00,78.0,71.0,-100.00,East,82,1.0,14.0,78,0.00,,,0.04,14.000000,,2013-07-17 02:32:00,
2013-07-16 21:43:00,78.0,71.0,-100.00,East,82,1.0,14.0,78,0.00,,,0.04,14.000000,,2013-07-17 02:43:00,
2013-07-16 21:53:00,78.0,71.0,-100.00,East,82,1.0,14.0,78,0.00,,,0.04,14.000000,,2013-07-17 02:53:00,
2013-07-16 22:01:00,78.0,71.0,-100.00,East,82,1.0,14.0,78,0.00,,,0.04,14.000000,,2013-07-17 03:01:00,
2013-07-16 22:22:00,75.0,69.0,-100.00,ESE,119,1.0,2.0,83,0.00,,,0.04,0.000000,,2013-07-17 03:22:00,
2013-07-16 22:32:00,75.0,69.0,-100.00,ESE,119,1.0,2.0,83,0.00,,,0.04,0.000000,,2013-07-17 03:32:00,
2013-07-16 22:43:00,75.0,69.0,-100.00,ESE,119,1.0,2.0,83,0.00,,,0.04,0.000000,,2013-07-17 03:43:00,
2013-07-16 22:53:00,75.0,69.0,-100.00,ESE,119,1.0,2.0,83,0.00,,,0.04,0.000000,,2013-07-17 03:53:00,
2013-07-16 23:01:00,75.0,69.0,-100.00,ESE,119,1.0,2.0,83,0.00,,,0.04,0.000000,,2013-07-17 04:01:00,
2013-07-16 23:02:00,74.0,70.0,-100.00,SE,140,1.0,2.0,86,0.00,,,-99.99,0.000000,,2013-07-17 04:02:00,
2013-07-16 23:22:00,74.0,70.0,-100.00,SE,140,1.0,2.0,86,0.00,,,-99.99,0.000000,,2013-07-17 04:22:00,
2013-07-16 23:32:00,74.0,70.0,-100.00,SE,140,1.0,2.0,86,0.00,,,-99.99,0.000000,,2013-07-17 04:32:00,
2013-07-16 23:43:00,74.0,70.0,-100.00,SE,140,1.0,2.0,86,0.00,,,-99.99,0.000000,,2013-07-17 04:43:00,
2013-07-16 23:53:00,74.0,70.0,-100.00,SE,140,1.0,2.0,86,0.00,,,-99.99,0.000000,,2013-07-17 04:53:00,